Miscellaneous Local Product
Issued by NWS Hastings, NE

Home | Current Version | Previous Version | Graphics & Text | Print | Product List | Glossary On
Versions: 1 2 3 4 5 6 7 8 9 10 11 12 13 14 15 16 17 18 19 20 21 22 23 24 25 26 27 28 29 30 31 32 33 34 35 36 37 38 39 40 41 42 43 44 45 46 47 48 49 50
000
AXUS43 KGID 272102
MISGRI

GID CWA HOURLY WEATHER ROUNDUP
NATIONAL WEATHER SERVICE HASTINGS NE
400 PM CDT MON JUL 27 2015

NOTE: "FAIR" INDICATES FEW OR NO CLOUDS BELOW 12,000 FEET WITH NO
SIGNIFICANT WEATHER AND/OR OBSTRUCTIONS TO VISIBILITY.

...SOUTH CENTRAL NEBRASKA...

CITY           SKY/WX    TMP DP  RH WIND       PRES   REMARKS
GRAND ISLAND   SUNNY     88  73  61 SE18G28   29.85F HX  95
HASTINGS       MOSUNNY   89  72  56 SE15      29.85F HX  96
KEARNEY        SUNNY     90  72  55 S21G26    29.84F HX  96
ORD            MOSUNNY   88  70  55 S20       29.81F HX  93
YORK           PTSUNNY   86  72  62 S14       29.87S HX  92
AURORA         MOSUNNY   88  71  57 S14G23    29.85F HX  93
LEXINGTON      SUNNY     91  71  51 SE18G26   29.82F HX  97
HOLDREGE       SUNNY     89  69  50 S15G22    29.84F HX  93
HEBRON         PTSUNNY   87  67  52 S12G18    29.87S

...NEBRASKA PANHANDLE...

CITY           SKY/WX    TMP DP  RH WIND       PRES   REMARKS
CHADRON        SUNNY     96  61  31 SE17G26   29.68F HX  96
ALLIANCE       SUNNY     89  65  44 S18G25    29.78F HX  91
SCOTTSBLUFF    SUNNY     94  62  34 SE15      29.75F HX  94
SIDNEY         MOSUNNY   93  57  29 S15G22    29.81F HX  91

...WESTERN AND NORTH CENTRAL NEBRASKA...

CITY           SKY/WX    TMP DP  RH WIND       PRES   REMARKS
VALENTINE      MOSUNNY   93  65  39 SE23      29.76F HX  95
AINSWORTH      MOSUNNY   92  66  43 S17G26    29.79F HX  94
ONEILL         MOSUNNY   92  63  38 S18G28    29.81S HX  93
BROKEN BOW     MOSUNNY   89  70  53 S18G28    29.82F HX  94
IMPERIAL       SUNNY     91  67  44 S20G29    29.79F HX  94
NORTH PLATTE   MOSUNNY   90  68  48 S13G24    29.78F HX  94
MCCOOK         MOSUNNY   94  70  45 S20G26    29.80F HX 100

...EASTERN NEBRASKA...

CITY           SKY/WX    TMP DP  RH WIND       PRES   REMARKS
NORFOLK        SUNNY     89  67  47 SE15G25   29.82F HX  92
SO SIOUX CITY  MOSUNNY   85  74  69 S16G23    29.85F HX  92
TEKAMAH        SUNNY     87  77  72 SE14      29.85F HX  99
COLUMBUS       MOSUNNY   88  70  55 S13G21    29.83F HX  92
ALBION         SUNNY     87  68  54 SE13G24   29.84F HX  90
OMAHA EPPLEY   MOSUNNY   90  71  53 SE16      29.86F HX  96
OFFUTT AFB     SUNNY     89  73  60 SE9       29.86F HX  96
MILLARD        SUNNY     88  73  60 SE12      29.87F HX  95
LINCOLN        SUNNY     91  72  53 S17       29.86F HX  98
NEBRASKA CITY  MOSUNNY   85  70  60 SE8       29.88F HX  90
BEATRICE       SUNNY     89  75  63 S10G18    29.86F HX  98
FALLS CITY     MOSUNNY   89  79  72 S10       29.86F HX 104

...NORTHERN KANSAS...

CITY           SKY/WX    TMP DP  RH WIND       PRES   REMARKS
GOODLAND       SUNNY     91  68  46 S21G29    29.84F HX  95
HILL CITY        N/A    N/A N/A N/A MISG        N/A
NORTON         PTCLDY    93  66  40 SE16G22   29.81F HX  96
PHILLIPSBURG   SUNNY     93  72  49 SE15      29.82F HX 100
SMITH CENTER   SUNNY     91  72  52 SE16      29.83F HX  98
HAYS           SUNNY     95  70  43 S24G32    29.83F HX 101
RUSSELL        SUNNY     94  70  45 S22G30    29.82F HX 100
CONCORDIA      PTSUNNY   90  75  61 SE13      29.84F HX 100
SALINA         PTSUNNY   97  71  42 S18       29.84F HX 104
TOPEKA         PTSUNNY   94  75  54 S10G17    29.86F HX 105



USA.gov is the U.S. government's official web portal to all federal, state and local government web resources and services.